• In Belarus
  • List of Countries
  • For 7 days
  • Water Temperature
  • Satellite Maps
  • Weather Map
  • Weather Widgets
  • user-avatar
    Login

    Hourly Weather Hobart

    Today, 22 September, Friday

    Time Temperature Precipitation Wind Pressure Humidity
    00:00 +8°C° 0 mm 3 mps 741 mmHg 85%
    01:00 +8°C° 0 mm 3 mps 741 mmHg 84%
    02:00 +8°C° 0 mm 3 mps 741 mmHg 85%
    03:00 +7°C° 0 mm 3 mps 741 mmHg 86%
    04:00 +7°C° 0 mm 3 mps 741 mmHg 87%
    05:00 +8°C° 0 mm 3 mps 741 mmHg 87%
    06:00 +8°C° 0 mm 3 mps 741 mmHg 86%
    07:00 +8°C° 0 mm 3 mps 742 mmHg 85%
    08:00 +10°C° 0 mm 3 mps 742 mmHg 77%
    09:00 +12°C° 0 mm 2 mps 742 mmHg 70%
    10:00 +13°C° 0 mm 3 mps 742 mmHg 61%
    11:00 +15°C° 0 mm 2 mps 742 mmHg 56%
    12:00 +16°C° 0 mm 2 mps 742 mmHg 51%
    13:00 +18°C° 0 mm 1 mps 741 mmHg 46%
    14:00 +17°C° 0 mm 2 mps 741 mmHg 49%
    15:00 +17°C° 0 mm 2 mps 741 mmHg 51%
    16:00 +16°C° 0 mm 3 mps 740 mmHg 56%
    17:00 +13°C° 0.1 mm 3 mps 741 mmHg 66%
    18:00 +11°C° 0.1 mm 3 mps 741 mmHg 76%
    19:00 +10°C° 0.1 mm 3 mps 741 mmHg 87%
    20:00 +10°C° 0 mm 3 mps 740 mmHg 88%
    21:00 +9°C° 0 mm 3 mps 740 mmHg 90%
    22:00 +8°C° 0 mm 2 mps 740 mmHg 93%
    23:00 +8°C° 0.1 mm 3 mps 739 mmHg 93%

    Tomorrow, 23 September, Saturday

    Time Temperature Precipitation Wind Pressure Humidity
    00:00 +8°C° 0.1 mm 3 mps 739 mmHg 93%
    01:00 +8°C° 0.1 mm 3 mps 738 mmHg 92%
    02:00 +8°C° 0.1 mm 3 mps 737 mmHg 90%
    03:00 +8°C° 0.1 mm 3 mps 737 mmHg 88%
    04:00 +9°C° 0.1 mm 3 mps 736 mmHg 87%
    05:00 +9°C° 0.1 mm 3 mps 736 mmHg 85%
    06:00 +10°C° 0.1 mm 3 mps 735 mmHg 83%
    07:00 +11°C° 0.1 mm 3 mps 735 mmHg 81%
    08:00 +13°C° 0.1 mm 3 mps 734 mmHg 76%
    09:00 +17°C° 0.1 mm 3 mps 734 mmHg 72%
    10:00 +19°C° 0.1 mm 3 mps 733 mmHg 67%
    11:00 +18°C° 1.6 mm 2 mps 732 mmHg 73%
    12:00 +17°C° 1.6 mm 2 mps 732 mmHg 80%
    13:00 +16°C° 1.6 mm 2 mps 731 mmHg 87%
    14:00 +17°C° 0.1 mm 2 mps 730 mmHg 79%
    15:00 +18°C° 0.1 mm 2 mps 729 mmHg 72%
    16:00 +20°C° 0.1 mm 2 mps 727 mmHg 65%
    17:00 +18°C° 0.6 mm 2 mps 727 mmHg 72%
    18:00 +16°C° 0.6 mm 2 mps 727 mmHg 78%
    19:00 +13°C° 0.6 mm 3 mps 727 mmHg 85%
    20:00 +12°C° 1.3 mm 3 mps 727 mmHg 87%
    21:00 +11°C° 1.3 mm 3 mps 727 mmHg 89%
    22:00 +10°C° 1.3 mm 3 mps 727 mmHg 91%
    23:00 +10°C° 0 mm 3 mps 727 mmHg 89%

    Day after tomorrow, 24 September, Sunday

    Time Temperature Precipitation Wind Pressure Humidity
    00:00 +10°C° 0 mm 4 mps 727 mmHg 88%
    01:00 +10°C° 0 mm 4 mps 727 mmHg 86%
    02:00 +10°C° 0 mm 4 mps 727 mmHg 85%
    03:00 +10°C° 0 mm 4 mps 726 mmHg 84%
    04:00 +8°C° 0 mm 5 mps 726 mmHg 83%
    05:00 +9°C° 0 mm 5 mps 725 mmHg 81%
    06:00 +9°C° 0 mm 5 mps 725 mmHg 79%
    07:00 +9°C° 0 mm 6 mps 725 mmHg 78%
    08:00 +10°C° 0.1 mm 6 mps 725 mmHg 75%
    09:00 +10°C° 0.1 mm 7 mps 726 mmHg 72%
    10:00 +11°C° 0.1 mm 8 mps 726 mmHg 70%
    11:00 +11°C° 0.1 mm 7 mps 726 mmHg 69%
    12:00 +12°C° 0.1 mm 7 mps 726 mmHg 68%
    13:00 +13°C° 0.1 mm 6 mps 727 mmHg 67%
    14:00 +13°C° 0.2 mm 6 mps 727 mmHg 68%
    15:00 +13°C° 0.2 mm 5 mps 727 mmHg 68%
    16:00 +13°C° 0.2 mm 5 mps 727 mmHg 69%
    17:00 +11°C° 0.1 mm 4 mps 728 mmHg 76%
    18:00 +10°C° 0.1 mm 3 mps 728 mmHg 83%
    19:00 +9°C° 0.1 mm 2 mps 728 mmHg 89%
    20:00 +8°C° 0 mm 2 mps 729 mmHg 91%
    21:00 +8°C° 0 mm 2 mps 729 mmHg 93%
    22:00 +8°C° 0 mm 2 mps 729 mmHg 94%
    23:00 +8°C° 0.1 mm 3 mps 730 mmHg 93%

    25 September, Monday

    Time Temperature Precipitation Wind Pressure Humidity
    00:00 +8°C° 0.1 mm 3 mps 730 mmHg 92%
    01:00 +7°C° 0.1 mm 4 mps 730 mmHg 91%
    02:00 +6°C° 0 mm 4 mps 730 mmHg 89%
    03:00 +6°C° 0 mm 5 mps 731 mmHg 87%
    04:00 +5°C° 0 mm 5 mps 731 mmHg 86%
    05:00 +5°C° 0 mm 6 mps 731 mmHg 85%
    06:00 +5°C° 0 mm 6 mps 731 mmHg 84%
    07:00 +5°C° 0 mm 6 mps 731 mmHg 83%
    08:00 +7°C° 0.2 mm 6 mps 731 mmHg 84%
    09:00 +7°C° 0.2 mm 6 mps 731 mmHg 85%
    10:00 +8°C° 0.2 mm 6 mps 731 mmHg 86%
    11:00 +9°C° 0.2 mm 6 mps 732 mmHg 81%
    12:00 +10°C° 0.2 mm 7 mps 732 mmHg 76%
    13:00 +11°C° 0.2 mm 7 mps 733 mmHg 71%
    14:00 +9°C° 0.5 mm 7 mps 734 mmHg 78%
    15:00 +7°C° 0.5 mm 8 mps 734 mmHg 85%
    16:00 +6°C° 0.5 mm 8 mps 735 mmHg 92%
    17:00 +5°C° 0.2 mm 7 mps 737 mmHg 93%
    18:00 +4°C° 0.2 mm 7 mps 738 mmHg 93%
    19:00 +3°C° 0.2 mm 6 mps 739 mmHg 93%
    20:00 +3°C° 0.1 mm 6 mps 740 mmHg 93%
    21:00 +2°C° 0.1 mm 6 mps 741 mmHg 94%
    22:00 +2°C° 0.1 mm 5 mps 742 mmHg 94%
    23:00 +1°C° 0.1 mm 5 mps 742 mmHg 95%

    26 September, Tuesday

    Time Temperature Precipitation Wind Pressure Humidity
    00:00 +1°C° 0.1 mm 4 mps 742 mmHg 95%
    01:00 0°C° 0.1 mm 4 mps 742 mmHg 96%
    02:00 0°C° 0 mm 4 mps 742 mmHg 96%
    03:00 0°C° 0 mm 4 mps 743 mmHg 97%
    04:00 0°C° 0 mm 3 mps 743 mmHg 97%
    05:00 +1°C° 0 mm 3 mps 743 mmHg 96%
    06:00 +1°C° 0 mm 3 mps 744 mmHg 95%
    07:00 +1°C° 0 mm 3 mps 744 mmHg 94%
    08:00 +4°C° 0 mm 3 mps 744 mmHg 81%
    09:00 +7°C° 0 mm 3 mps 745 mmHg 69%
    10:00 +8°C° 0 mm 4 mps 745 mmHg 56%
    11:00 +10°C° 0 mm 4 mps 745 mmHg 56%
    12:00 +10°C° 0 mm 4 mps 745 mmHg 55%
    13:00 +10°C° 0 mm 4 mps 745 mmHg 54%
    14:00 +10°C° 0 mm 4 mps 745 mmHg 55%
    15:00 +10°C° 0 mm 4 mps 744 mmHg 55%
    16:00 +10°C° 0 mm 3 mps 744 mmHg 56%
    17:00 +9°C° 0 mm 3 mps 745 mmHg 65%
    18:00 +7°C° 0 mm 3 mps 745 mmHg 74%
    19:00 +4°C° 0 mm 3 mps 746 mmHg 82%
    20:00 +3°C° 0 mm 3 mps 746 mmHg 87%
    21:00 +2°C° 0 mm 3 mps 746 mmHg 91%
    22:00 +2°C° 0 mm 3 mps 746 mmHg 95%
    23:00 +2°C° 0 mm 2 mps 746 mmHg 95%

    27 September, Wednesday

    Time Temperature Precipitation Wind Pressure Humidity
    00:00 +2°C° 0 mm 2 mps 746 mmHg 96%
    01:00 +1°C° 0 mm 2 mps 745 mmHg 96%
    02:00 +1°C° 0 mm 2 mps 745 mmHg 95%
    03:00 +1°C° 0 mm 2 mps 745 mmHg 94%
    04:00 +1°C° 0 mm 2 mps 744 mmHg 93%
    05:00 +2°C° 0 mm 2 mps 744 mmHg 88%
    06:00 +4°C° 0 mm 1 mps 744 mmHg 83%
    07:00 +5°C° 0 mm 1 mps 744 mmHg 78%
    08:00 +8°C° 0 mm 1 mps 744 mmHg 68%
    09:00 +9°C° 0 mm 2 mps 744 mmHg 58%
    10:00 +12°C° 0 mm 2 mps 743 mmHg 48%
    11:00 +13°C° 0 mm 2 mps 742 mmHg 48%
    12:00 +13°C° 0 mm 1 mps 742 mmHg 47%
    13:00 +14°C° 0 mm 1 mps 741 mmHg 46%
    14:00 +13°C° 0.3 mm 1 mps 740 mmHg 59%
    15:00 +10°C° 0.3 mm 2 mps 740 mmHg 71%
    16:00 +9°C° 0.3 mm 2 mps 740 mmHg 83%
    17:00 +9°C° 0.1 mm 1 mps 739 mmHg 87%
    18:00 +8°C° 0.1 mm 1 mps 739 mmHg 91%
    19:00 +7°C° 0.1 mm 1 mps 739 mmHg 95%
    20:00 +7°C° 0 mm 1 mps 738 mmHg 96%
    21:00 +6°C° 0 mm 1 mps 738 mmHg 96%
    22:00 +5°C° 0 mm 1 mps 738 mmHg 97%
    23:00 +5°C° 0 mm 1 mps 738 mmHg 97%
    Show more